Vorticity
3 3 4 5 5 6 7 7 8 7 9 10 9 9 9 9 7 5 7 8 7 8 9 9 8 6 6 6 6 7 7 8 5 4 3 1 4 4 -0 1 3 2 2 1 2 -1 -5 3 4 1 4 8 10 5 5 7 8 4 -0 3 4 5 6 6 3 1 3 4 4 6 8 8 8 7 6 6 5 5 5 9 8 9 9 3 0 -1 6 8 4 7 10 10 10 7 4 5 6
4 4 5 6 5 7 7 7 9 8 9 11 9 8 8 7 6 6 7 7 6 6 6 3 2 2 4 5 5 5 5 6 5 5 4 2 3 1 -0 3 5 7 8 6 4 1 -0 1 -5 3 14 15 18 10 9 12 7 5 -0 0 3 3 4 7 11 7 5 6 6 5 7 8 7 7 6 7 6 6 6 8 7 6 10 10 9 1 0 9 5 6 10 11 11 7 4 5 5
4 5 6 6 7 8 7 8 10 9 11 11 8 6 7 6 7 7 6 6 5 5 4 1 4 4 6 7 5 4 4 4 5 5 6 6 6 6 7 7 10 11 9 9 7 3 5 3 -4 6 11 7 15 12 11 15 11 8 1 1 4 3 1 2 9 12 9 9 8 4 4 4 4 5 5 6 6 6 6 7 8 5 9 7 8 7 0 8 7 4 10 12 12 7 5 5 5
5 5 6 7 8 9 8 10 10 10 12 10 8 6 6 6 7 6 6 6 4 6 4 5 7 5 8 7 4 7 4 3 5 5 7 8 8 9 10 9 10 9 7 8 5 3 5 5 2 5 7 4 8 9 11 14 15 14 3 3 5 4 5 1 -1 3 7 8 8 4 2 2 1 3 4 6 5 6 7 8 8 4 10 7 3 6 2 7 7 4 10 13 12 6 5 4 6
5 7 8 9 9 9 8 10 10 12 12 9 7 5 5 6 7 6 5 4 4 7 4 7 7 3 9 4 2 6 5 7 7 5 6 5 6 8 9 8 7 8 10 8 3 4 6 7 7 3 5 5 5 6 6 7 13 14 5 6 7 3 8 5 -4 -2 6 8 7 4 3 5 4 4 4 6 6 5 7 8 10 5 7 10 4 4 4 8 7 4 10 13 11 6 5 4 6
8 9 10 10 10 9 9 9 10 13 11 8 6 4 5 6 7 5 4 5 7 6 3 7 6 5 8 3 5 6 6 12 9 6 7 5 6 8 8 7 7 8 7 7 8 10 9 5 -0 1 4 3 2 4 5 9 13 13 6 7 9 2 5 3 -2 3 9 9 5 4 4 5 6 7 6 7 7 6 7 9 10 7 5 10 7 5 8 10 7 4 11 13 10 6 5 4 7
10 11 11 11 11 10 10 10 9 12 10 7 6 5 5 6 7 5 5 7 6 4 5 8 6 9 9 6 12 10 10 12 8 7 7 5 4 5 5 3 3 2 2 5 7 8 8 2 -1 7 10 5 6 4 6 15 14 14 9 7 9 2 2 4 4 3 3 7 7 5 6 6 5 7 7 6 8 7 7 9 11 8 4 9 8 6 9 10 6 5 10 13 9 7 5 4 7
10 11 10 10 10 11 12 12 10 11 10 8 7 6 6 7 8 8 8 8 6 6 9 10 9 14 11 8 11 8 9 8 6 7 5 5 3 2 2 1 0 -2 1 2 1 2 -0 4 9 9 9 5 9 9 6 11 10 14 13 6 7 1 -1 5 10 4 -6 2 8 6 7 8 6 3 4 5 7 8 7 9 11 9 5 7 8 7 9 7 6 6 9 12 9 7 5 4 6
10 10 9 10 9 10 11 12 12 13 11 8 7 7 8 9 9 11 11 8 7 7 6 6 8 12 8 1 1 3 7 5 3 5 3 4 2 1 2 1 1 -1 1 1 3 1 -3 14 20 12 15 5 5 16 11 10 7 12 18 10 5 1 0 0 9 13 2 3 7 9 8 5 4 2 3 3 6 8 8 10 11 9 5 8 9 7 9 6 4 6 9 11 10 7 5 4 5
9 9 9 10 10 8 8 10 12 15 13 9 9 9 9 8 9 9 7 5 4 4 3 3 6 7 3 -2 -1 3 6 4 2 3 2 3 1 1 2 1 2 1 3 3 3 1 -0 11 12 16 21 -3 -8 10 14 14 7 4 13 16 10 2 2 -0 6 12 1 -1 4 8 8 3 1 3 3 -0 3 8 8 9 10 9 5 8 9 7 8 5 3 7 9 10 10 8 5 4 4
9 11 9 9 9 7 8 10 12 14 13 10 11 9 7 6 8 8 6 5 5 6 5 5 7 5 4 1 3 6 7 7 4 4 3 2 3 2 2 2 3 4 5 5 4 6 7 3 1 13 12 -5 -4 4 9 16 13 7 6 14 15 5 2 3 8 6 -6 -6 -2 -0 3 6 6 5 3 -1 0 6 7 8 9 9 6 8 10 7 7 5 3 7 9 8 9 8 6 4 4
10 10 9 8 7 6 9 10 9 10 10 10 11 8 7 7 8 9 8 7 6 6 5 5 6 6 6 4 5 6 6 7 6 6 6 4 5 5 4 5 6 6 6 6 6 8 12 10 8 11 4 -0 6 4 6 12 14 11 5 9 13 8 3 3 8 7 3 2 -1 -2 -1 4 9 6 5 2 -0 4 6 7 9 9 7 9 10 7 6 5 4 7 9 8 8 9 8 4 4
8 6 6 5 4 5 7 6 5 6 7 9 10 8 6 6 6 6 6 5 5 4 4 5 5 8 9 8 9 10 9 10 11 10 9 9 8 9 8 8 8 9 10 9 8 8 10 10 9 10 6 4 6 4 5 10 13 10 5 8 11 9 5 1 4 7 6 6 3 4 4 3 7 7 8 5 -1 3 6 5 7 8 7 10 11 6 5 5 4 7 9 9 9 10 9 5 3
5 4 3 3 3 3 4 3 4 4 4 5 5 3 3 4 4 6 6 7 8 7 9 11 14 17 15 13 13 13 13 12 11 10 10 10 10 11 10 10 10 9 12 12 11 11 9 8 7 9 10 9 7 5 6 12 16 10 2 5 11 10 7 1 1 9 6 4 6 6 8 8 7 7 10 8 -0 4 8 5 6 8 7 9 12 8 3 5 4 5 8 9 8 9 9 5 3
3 3 2 3 3 3 4 3 5 5 5 5 4 4 6 7 8 9 10 10 10 10 12 15 18 21 16 13 12 10 11 10 9 8 7 8 7 9 9 9 11 10 9 9 10 11 10 9 7 7 9 10 9 10 9 9 14 14 4 2 12 10 9 5 -2 6 6 3 5 4 8 9 8 7 7 6 1 5 8 5 5 7 7 7 10 9 3 4 5 4 7 10 7 7 8 6 4
4 4 4 5 5 6 5 5 6 7 8 9 9 10 10 9 9 9 9 8 9 9 9 9 9 10 8 7 8 7 8 8 8 7 6 7 7 7 7 6 8 9 8 7 7 7 9 9 8 6 7 8 10 11 9 12 20 24 13 1 9 11 10 12 4 1 3 6 2 1 8 9 9 6 2 3 4 7 5 3 5 6 7 5 7 9 4 3 5 4 5 10 9 6 7 7 4
6 6 7 7 8 7 6 6 7 8 9 10 9 9 8 7 6 6 7 5 5 6 6 7 7 8 7 6 6 7 7 6 6 7 7 6 6 6 6 6 6 7 6 6 6 5 6 7 8 7 5 5 8 9 10 19 28 31 27 11 7 12 10 12 13 6 2 5 1 -2 5 8 9 5 3 4 4 6 3 1 3 4 6 5 5 8 6 3 3 5 4 8 11 7 7 6 5
7 7 9 10 9 7 5 7 7 6 6 6 5 5 5 5 4 4 4 3 3 4 5 6 8 9 9 7 6 6 6 5 5 5 5 6 6 7 8 8 8 7 7 6 5 4 4 4 6 7 7 7 5 7 7 13 23 26 23 14 7 8 10 9 12 11 3 2 3 0 2 6 8 6 5 4 3 6 3 2 2 3 6 6 5 7 8 5 2 4 3 7 11 9 7 6 5
7 7 7 8 7 6 5 6 6 4 4 4 4 4 4 4 3 3 2 3 4 4 5 5 6 7 7 8 8 7 6 5 5 4 5 5 5 7 9 9 8 7 6 7 6 5 4 3 3 4 5 7 6 7 6 4 14 15 6 10 11 7 10 7 10 16 6 0 4 4 2 5 7 7 5 1 3 7 5 3 3 1 4 6 5 6 10 8 3 2 3 5 11 9 7 7 5
5 5 6 5 5 5 5 5 4 3 3 4 4 4 4 4 3 3 3 4 5 4 4 5 6 6 5 7 8 7 6 5 5 5 5 5 5 6 6 7 7 7 7 7 8 7 6 5 4 4 3 4 5 5 6 4 8 10 4 8 10 11 12 4 6 14 9 2 1 4 5 3 4 6 5 1 1 5 5 5 5 1 1 5 5 5 9 10 5 2 4 4 10 10 6 6 6
6 6 5 4 4 4 4 3 2 2 3 3 3 3 3 3 3 3 4 5 5 5 4 5 6 5 4 5 7 6 6 5 5 5 5 5 6 6 5 5 5 6 7 7 8 8 8 8 6 6 5 4 4 4 5 5 8 10 6 4 6 16 20 10 6 8 9 7 0 1 4 2 4 6 3 2 1 1 4 4 4 3 1 3 4 4 6 11 8 3 5 3 6 11 8 5 6
7 6 5 4 3 3 2 2 1 2 2 2 2 3 3 3 3 4 5 6 6 6 5 5 5 4 4 5 5 5 4 4 4 4 5 6 6 6 5 5 5 5 6 6 7 8 7 9 8 8 8 6 6 5 3 3 6 7 6 8 9 11 16 17 14 7 3 5 5 4 6 2 1 5 3 2 3 2 3 2 2 3 3 3 5 5 4 9 11 4 5 5 3 8 10 7 5
7 7 5 4 3 3 2 2 2 2 2 2 2 3 4 3 3 3 4 5 5 5 5 5 5 6 6 5 4 4 4 4 4 4 4 5 6 6 6 5 5 5 5 5 6 7 7 7 8 8 8 8 7 7 6 5 3 3 6 9 8 8 12 16 17 15 7 4 6 7 11 8 -2 1 2 1 3 3 3 2 0 1 3 4 4 5 4 6 10 7 4 6 3 4 9 9 6
6 6 5 5 4 3 3 2 2 3 2 2 2 3 3 4 4 5 5 4 5 5 5 5 5 6 6 6 6 5 5 5 4 4 3 3 4 5 7 6 6 6 6 6 5 5 5 6 7 7 8 8 9 9 8 7 5 4 4 3 4 8 11 11 12 16 16 14 12 7 9 13 4 -2 -2 -0 2 2 4 3 1 0 2 4 3 5 6 5 7 8 5 5 4 2 6 9 7
5 5 4 4 4 3 3 3 3 4 4 3 3 3 4 5 6 5 5 5 5 5 5 5 5 6 6 6 6 6 6 5 4 4 3 3 4 4 6 7 7 8 8 8 7 5 3 4 5 6 7 8 9 10 9 8 8 7 5 4 3 1 1 5 7 8 13 18 21 16 7 8 10 3 -3 -2 1 2 3 3 2 0 1 3 3 3 5 6 6 7 6 4 5 3 3 7 8
6 5 5 5 4 4 4 4 5 5 4 4 4 5 6 6 5 5 5 5 5 5 6 5 5 5 6 6 6 6 6 6 5 5 5 5 4 4 5 6 7 7 8 9 9 9 6 4 4 5 5 6 7 9 9 8 7 7 7 7 6 1 -2 1 4 4 7 11 19 23 14 6 9 10 4 -2 -1 3 4 3 3 2 1 3 3 2 3 5 6 8 7 4 4 4 3 4 7
6 6 6 6 6 6 6 5 5 5 5 5 6 6 6 6 5 5 5 5 6 6 6 6 5 5 6 6 6 7 7 8 8 7 8 7 6 6 5 5 6 6 6 6 6 8 8 7 5 4 5 6 7 7 8 8 6 6 6 6 6 5 4 2 2 2 3 5 13 21 21 13 8 10 10 4 -1 0 3 2 2 3 2 1 3 3 3 3 4 8 10 6 4 3 2 3 4
7 7 7 8 7 7 6 6 6 5 5 6 7 6 7 7 6 6 6 6 5 5 5 5 5 6 6 7 7 8 8 7 8 8 8 8 7 7 7 7 6 6 5 5 4 5 6 8 7 6 6 7 8 7 8 8 7 6 5 6 6 6 7 6 4 3 4 5 8 15 21 21 17 12 9 6 4 0 2 4 2 4 4 2 2 2 2 3 2 5 10 10 7 4 3 2 3
7 6 7 8 7 5 6 6 6 6 6 6 7 7 7 7 6 6 5 5 5 4 5 5 6 6 6 6 7 8 8 8 8 9 9 9 8 8 8 8 8 7 7 7 6 6 6 7 8 8 8 8 9 8 8 8 8 6 5 5 5 5 6 7 7 6 5 3 3 7 11 15 21 22 14 6 5 4 2 3 3 3 5 3 1 1 2 3 3 3 6 10 10 8 5 2 2
5 5 5 5 5 5 5 6 6 6 5 6 7 6 5 5 5 5 5 5 5 5 5 6 7 7 7 8 10 12 14 14 13 13 14 13 13 12 11 10 10 10 10 10 8 8 8 8 8 8 8 9 9 9 7 8 8 7 6 6 6 6 5 6 8 7 7 5 2 3 3 7 12 19 25 16 3 5 5 2 3 3 5 5 2 1 1 2 4 3 4 7 8 10 8 3 2
5 5 5 5 5 6 6 7 7 7 6 6 7 6 5 5 6 6 6 7 6 7 8 9 10 10 11 11 12 13 13 12 11 11 12 12 12 12 12 10 9 8 8 9 8 7 7 8 8 9 9 9 9 8 7 7 8 8 7 7 6 6 6 6 7 7 8 8 6 5 4 6 6 8 27 32 10 4 8 4 1 3 4 5 4 2 2 2 3 3 4 5 5 9 10 7 3
6 6 6 6 6 7 8 7 7 7 7 7 7 6 6 7 7 7 8 9 9 9 11 12 12 11 10 10 8 7 7 7 8 8 8 9 9 8 8 8 7 6 6 7 7 8 7 6 7 8 9 9 9 8 7 7 7 8 7 7 7 7 7 7 7 7 8 8 6 7 5 4 6 5 18 35 24 8 8 6 1 3 4 4 5 4 2 2 3 3 3 3 4 6 9 11 7
7 6 6 7 7 6 7 7 8 8 7 7 7 7 7 7 8 9 10 9 9 10 11 11 9 7 6 6 7 7 8 8 8 9 10 10 9 8 8 7 6 6 6 6 7 8 8 7 7 7 8 8 9 9 8 8 7 7 7 7 6 7 8 8 7 7 7 8 5 5 6 4 5 5 6 22 32 18 7 6 3 2 4 3 4 5 3 1 2 4 4 2 3 4 6 9 10
6 6 7 7 7 7 7 7 7 7 7 8 9 9 11 11 12 11 10 8 8 8 9 8 6 6 6 6 7 9 9 10 9 10 10 9 8 8 7 7 6 6 5 6 7 7 8 8 8 8 8 7 8 8 9 9 8 8 7 7 7 6 7 7 8 7 6 7 7 4 6 6 4 4 5 11 29 30 14 7 5 5 7 6 4 5 5 2 2 2 3 4 2 2 5 5 8
6 7 7 7 7 7 7 8 8 10 11 11 12 13 13 12 10 8 7 7 6 7 8 8 8 7 6 6 9 10 10 10 10 9 8 7 7 6 6 6 6 6 5 6 6 7 7 8 8 9 9 8 8 7 7 8 9 10 9 8 8 7 6 6 7 7 6 5 6 5 5 7 4 3 6 4 16 33 24 9 6 6 6 7 6 4 5 4 2 3 2 4 4 1 3 5 6
7 8 8 8 9 9 10 11 12 12 13 12 11 10 9 7 6 6 7 7 6 7 9 8 8 8 7 8 9 9 9 9 8 8 7 7 7 7 7 7 6 6 6 6 6 6 6 7 7 8 9 10 9 8 8 7 7 9 10 10 9 10 8 7 7 6 7 5 4 5 4 6 6 4 6 4 7 21 22 13 15 19 13 8 7 1 3 7 2 2 3 2 4 3 2 3 4
10 11 11 12 12 12 12 12 10 9 9 8 6 6 7 7 7 7 8 7 7 8 9 8 9 9 9 10 9 7 7 6 6 7 8 9 9 8 7 7 7 6 6 6 6 7 7 7 7 7 7 9 10 9 9 8 7 7 9 10 10 11 10 9 9 7 7 6 4 5 5 4 6 5 5 7 5 9 16 12 9 21 22 15 16 7 -3 5 7 1 1 2 3 3 2 2 3
15 14 14 14 14 12 10 9 8 6 5 5 5 5 9 10 8 7 8 9 9 9 9 9 9 9 9 8 6 6 6 6 6 7 8 9 9 8 8 8 7 7 7 7 7 8 8 8 8 9 8 8 8 8 9 8 8 8 7 8 9 10 11 11 10 9 8 7 5 5 5 4 5 5 5 6 5 6 15 9 -5 9 21 12 20 26 8 0 7 6 2 1 3 3 2 2 3
16 13 13 11 10 9 7 7 6 6 6 6 7 6 9 9 7 7 9 10 10 10 9 8 8 8 8 7 6 6 6 6 7 7 8 8 8 8 9 9 8 8 8 8 8 8 8 8 9 9 9 9 8 8 8 9 8 9 8 7 7 7 9 11 11 11 10 9 7 5 5 5 5 5 5 5 5 6 11 10 -3 3 17 6 3 22 24 7 1 5 5 3 2 3 4 4 3
9 8 8 7 7 7 7 6 6 7 7 7 8 8 10 10 9 9 9 9 10 9 7 8 8 8 7 7 7 6 6 7 8 8 8 7 7 7 8 8 9 9 10 10 10 9 9 10 10 11 11 11 11 9 8 9 9 9 8 7 7 7 7 9 11 11 10 11 10 8 6 5 5 6 4 5 5 5 5 8 4 -1 9 12 2 4 17 17 8 2 2 4 4 3 4 5 5
7 8 7 7 7 7 7 7 7 7 8 8 8 8 10 10 9 9 8 7 8 8 8 8 8 7 8 7 7 7 8 9 9 9 9 9 9 8 8 8 8 9 9 9 9 9 10 11 11 11 12 12 12 12 10 9 9 9 9 9 8 9 8 8 10 10 11 12 12 12 10 7 6 6 5 5 4 5 4 4 7 5 4 11 13 7 6 11 17 11 1 1 3 3 2 4 6
6 7 7 7 7 6 7 7 7 8 8 8 9 8 9 10 9 8 9 7 6 8 8 7 7 7 8 8 9 10 10 10 10 9 9 10 10 9 9 9 9 8 8 8 7 8 8 9 10 10 12 13 13 13 12 10 10 10 10 10 10 9 10 9 9 9 10 12 13 13 13 11 8 6 5 5 4 4 5 3 3 6 5 4 8 13 11 6 14 19 8 0 1 2 3 2 3
5 4 5 6 6 6 6 7 7 8 8 8 10 9 5 7 10 8 8 8 7 7 6 6 8 8 8 9 9 10 10 9 9 9 9 9 8 8 9 8 8 8 8 8 8 8 9 8 10 11 11 12 13 13 13 12 11 11 11 11 10 10 10 11 10 10 10 11 12 12 13 14 12 9 5 4 5 4 4 5 4 2 4 5 2 6 13 9 11 20 15 6 3 1 3 3 1
6 6 6 7 7 7 8 9 8 8 9 9 10 9 4 6 12 9 5 7 8 7 6 7 8 8 7 6 7 8 9 9 9 9 9 9 9 8 8 8 8 8 7 7 7 8 9 10 10 11 12 12 12 11 12 13 13 12 13 12 13 13 11 12 12 11 11 11 12 12 12 13 14 14 11 6 4 5 4 3 4 4 2 4 3 3 9 9 7 15 18 14 8 3 2 4 4
7 8 9 9 9 8 9 10 10 9 9 10 10 9 7 6 10 11 6 5 6 7 7 8 7 7 8 7 8 9 9 8 7 7 8 8 9 9 9 9 8 8 8 8 9 9 9 10 11 11 12 11 11 11 11 11 11 11 12 11 12 13 11 12 13 11 11 10 10 12 12 11 12 14 15 13 8 5 5 4 4 5 3 3 3 2 7 9 2 5 13 16 14 9 5 2 3
8 9 9 10 9 10 10 9 9 9 7 8 8 8 8 5 6 10 10 7 7 7 8 9 8 8 10 11 11 9 7 6 6 7 7 8 8 8 9 9 8 9 10 9 10 11 11 11 11 10 10 10 10 11 10 9 9 9 10 10 11 12 11 11 12 11 12 11 8 10 12 12 11 11 13 16 17 12 7 5 4 4 4 4 3 2 4 8 5 2 5 10 12 11 12 7 1
9 9 10 11 9 8 8 7 9 9 7 7 7 7 9 8 6 8 9 7 7 7 7 8 8 7 8 8 7 5 4 5 7 8 8 8 8 9 9 9 10 9 10 10 10 11 13 13 13 12 11 11 11 10 8 7 8 8 9 10 9 10 11 11 12 11 11 12 10 9 11 11 11 12 11 11 16 19 16 11 6 4 4 4 4 3 3 4 6 5 2 6 11 10 13 16 6
11 10 9 10 10 9 9 9 10 9 9 9 8 7 8 7 7 9 9 6 6 6 6 7 8 7 7 6 5 5 6 7 7 8 9 10 9 9 10 9 9 10 10 10 10 11 12 13 15 15 13 14 14 12 10 8 8 7 8 9 7 7 9 10 11 10 10 11 11 10 11 11 10 11 13 12 12 15 19 19 14 8 5 5 4 4 4 4 4 7 5 6 13 14 10 14 13
11 10 9 9 9 9 8 6 7 6 7 10 8 6 8 7 7 10 10 8 7 7 8 8 8 7 7 7 7 7 7 8 9 11 11 11 11 11 11 10 10 11 10 9 10 10 11 12 14 16 16 17 17 15 14 13 12 11 10 10 9 9 10 10 11 12 12 12 11 12 12 12 11 10 12 14 14 13 14 18 20 18 11 6 5 4 5 5 3 5 6 4 9 14 11 11 12
8 8 8 7 6 9 8 6 8 6 5 10 7 4 6 7 8 10 10 8 8 9 9 8 7 8 8 8 9 9 9 11 11 12 13 12 13 12 11 11 10 10 9 9 9 9 10 11 12 13 13 15 15 14 15 16 16 15 13 11 10 11 10 11 12 13 13 13 12 11 13 14 13 12 11 12 15 16 14 13 16 20 20 13 8 5 5 6 5 3 5 6 7 10 11 11 12
3 3 5 4 3 6 7 7 9 9 7 9 9 8 8 8 11 12 10 7 6 7 9 8 7 7 8 9 10 10 11 11 10 10 11 11 11 12 12 12 11 11 10 10 9 9 9 9 10 11 12 12 13 13 12 13 14 13 11 9 9 9 9 9 10 11 11 11 11 10 10 12 13 12 12 11 12 15 16 17 15 16 20 20 16 10 5 5 6 5 4 5 7 7 7 6 12
6 4 4 4 2 3 6 6 7 8 10 10 9 10 10 9 9 9 10 10 7 4 4 6 6 7 8 8 9 11 10 8 8 9 10 12 14 14 14 13 11 10 9 9 8 8 8 9 9 10 10 11 14 16 14 11 10 8 7 7 8 8 9 10 10 11 12 11 11 10 9 9 11 11 11 10 10 11 12 14 16 15 16 19 22 19 12 6 5 7 5 4 6 6 7 4 6
6 5 6 8 7 5 5 9 8 8 12 10 7 9 9 8 5 3 7 10 8 5 4 5 7 8 10 10 8 9 8 8 9 10 11 13 13 12 10 10 10 9 9 9 8 8 9 10 10 10 10 10 12 16 18 16 13 11 10 9 9 10 10 10 10 11 12 13 13 12 11 10 10 9 10 10 10 10 10 10 11 14 15 16 20 22 21 14 5 6 6 4 6 4 7 8 2
6 9 10 9 8 5 4 7 9 9 14 15 8 6 7 6 3 2 5 8 8 6 6 7 9 9 9 10 8 8 9 9 9 10 12 12 11 13 14 12 11 10 9 9 9 9 11 10 11 12 11 9 10 11 14 15 14 14 14 12 11 11 10 10 11 10 11 14 15 14 12 12 11 10 9 9 10 9 9 10 8 10 12 13 15 19 24 23 13 8 6 4 7 3 4 12 9
6 8 9 5 3 4 3 5 4 0 9 19 13 7 6 2 2 5 9 13 13 9 8 8 8 10 9 8 7 9 10 9 9 9 9 10 13 17 17 13 11 10 10 10 10 10 11 11 12 12 12 12 11 10 10 10 11 12 13 12 10 9 10 11 11 11 12 13 16 16 14 13 12 11 10 9 10 10 9 9 9 8 10 10 12 13 18 25 23 15 9 4 6 6 3 7 7
7 9 10 4 0 3 4 8 5 -5 2 16 16 15 12 2 1 8 10 13 14 12 11 9 6 7 8 6 7 10 9 7 8 7 6 9 13 15 14 12 11 10 10 9 9 10 11 11 11 11 12 13 14 13 10 8 8 9 10 10 8 7 7 10 11 11 12 13 15 16 15 15 14 12 13 11 10 11 9 9 9 8 9 8 10 12 10 17 25 23 17 7 4 7 5 3 3
3 4 5 0 0 7 8 7 4 -3 0 10 16 17 11 2 5 11 8 8 10 13 13 9 6 6 8 11 12 9 7 6 7 7 8 9 8 8 9 10 11 10 10 9 9 10 11 11 11 12 11 12 14 15 12 9 8 8 9 9 8 8 6 8 10 10 11 12 14 16 15 15 16 15 16 15 13 13 11 9 9 8 9 8 9 11 8 8 15 23 26 15 5 7 5 3 4
2 2 4 3 2 4 1 -1 4 4 2 7 14 14 7 5 8 8 7 8 9 14 17 11 7 9 11 12 9 4 5 7 7 7 9 8 4 4 7 9 10 10 9 10 9 9 9 9 11 12 13 14 14 14 13 11 9 8 10 11 9 9 7 7 8 10 12 11 10 14 15 14 16 18 20 19 17 18 15 12 10 7 7 8 9 10 9 7 7 13 25 25 15 6 5 7 3
Height
5827 5827 5828 5828 5828 5828 5828 5829 5829 5830 5831 5830 5830 5830 5831 5832 5833 5833 5834 5834 5835 5836 5836 5837 5838 5839 5840 5841 5841 5842 5843 5843 5844 5845 5846 5847 5848 5849 5850 5851 5852 5853 5854 5855 5855 5855 5855 5856 5856 5857 5857 5857 5857 5859 5860 5861 5862 5863 5863 5863 5864 5865 5867 5869 5870 5871 5872 5872 5872 5872 5873 5874 5875 5875 5875 5875 5875 5874 5874 5874 5875 5875 5876 5876 5876 5876 5877 5877 5878 5878 5879 5880 5882 5882 5883 5884 5886
5825 5825 5826 5826 5826 5826 5826 5827 5827 5828 5829 5829 5829 5829 5830 5830 5831 5832 5832 5833 5833 5834 5835 5835 5837 5838 5838 5839 5840 5840 5841 5841 5842 5843 5844 5845 5846 5847 5848 5849 5850 5851 5852 5853 5854 5854 5855 5856 5856 5856 5857 5856 5856 5857 5859 5860 5860 5861 5861 5861 5862 5864 5865 5867 5868 5869 5870 5871 5871 5871 5872 5873 5874 5874 5874 5874 5874 5874 5874 5874 5874 5875 5875 5876 5876 5876 5877 5877 5878 5878 5879 5880 5882 5883 5883 5884 5886
5823 5823 5823 5823 5824 5824 5824 5825 5825 5826 5827 5827 5827 5828 5829 5829 5830 5831 5831 5831 5832 5832 5833 5834 5835 5836 5836 5837 5838 5838 5838 5839 5840 5841 5842 5843 5844 5845 5846 5848 5848 5849 5850 5851 5852 5852 5853 5854 5855 5855 5855 5855 5855 5855 5857 5857 5858 5858 5859 5860 5861 5863 5864 5866 5867 5867 5869 5870 5870 5870 5870 5871 5872 5873 5873 5874 5874 5874 5874 5874 5874 5874 5874 5875 5875 5875 5876 5878 5878 5878 5879 5880 5882 5883 5883 5884 5886
5820 5821 5821 5821 5821 5822 5822 5823 5824 5824 5825 5826 5826 5826 5827 5828 5828 5829 5830 5830 5830 5831 5832 5832 5833 5833 5834 5835 5835 5836 5836 5837 5838 5839 5841 5842 5843 5843 5844 5846 5846 5847 5849 5850 5850 5851 5851 5850 5851 5852 5853 5853 5853 5854 5855 5856 5856 5856 5857 5859 5860 5861 5863 5864 5864 5865 5867 5869 5869 5869 5869 5870 5871 5872 5873 5873 5873 5873 5873 5873 5874 5874 5874 5874 5874 5875 5876 5878 5878 5878 5879 5881 5882 5882 5883 5884 5885
5818 5818 5819 5819 5819 5820 5820 5821 5822 5822 5823 5824 5824 5825 5825 5827 5827 5828 5828 5828 5829 5830 5830 5831 5831 5831 5832 5832 5833 5833 5834 5835 5837 5838 5839 5840 5841 5841 5843 5844 5844 5845 5846 5847 5848 5848 5848 5847 5846 5847 5848 5850 5852 5853 5854 5855 5855 5855 5856 5858 5859 5860 5861 5862 5862 5863 5866 5868 5868 5868 5868 5869 5869 5870 5872 5873 5873 5873 5873 5873 5873 5873 5874 5874 5874 5875 5876 5878 5878 5878 5879 5881 5881 5882 5883 5883 5885
5816 5816 5816 5817 5817 5818 5818 5819 5819 5820 5820 5821 5822 5822 5823 5825 5826 5827 5827 5827 5828 5828 5828 5829 5829 5830 5830 5831 5831 5832 5833 5834 5836 5837 5838 5839 5839 5840 5841 5842 5843 5843 5844 5844 5845 5845 5844 5843 5842 5843 5845 5848 5851 5852 5853 5853 5853 5853 5854 5855 5857 5858 5859 5860 5861 5862 5864 5866 5867 5867 5867 5868 5868 5869 5871 5872 5872 5872 5872 5873 5873 5873 5873 5873 5874 5875 5876 5877 5878 5878 5879 5880 5881 5882 5883 5883 5885
5814 5814 5814 5815 5815 5816 5816 5816 5817 5818 5819 5819 5820 5821 5822 5824 5825 5825 5826 5826 5826 5827 5827 5828 5828 5829 5829 5830 5831 5832 5832 5833 5834 5835 5836 5837 5837 5838 5840 5841 5841 5842 5842 5841 5841 5841 5841 5841 5842 5843 5845 5847 5848 5850 5850 5851 5850 5851 5852 5852 5854 5856 5857 5858 5860 5861 5862 5864 5866 5866 5866 5867 5867 5868 5869 5871 5871 5872 5872 5872 5872 5872 5872 5873 5874 5875 5876 5877 5877 5878 5879 5880 5881 5882 5882 5883 5884
5812 5812 5812 5813 5813 5814 5814 5814 5815 5816 5817 5818 5818 5819 5820 5822 5823 5824 5825 5825 5825 5826 5826 5826 5827 5828 5829 5830 5831 5831 5831 5832 5833 5834 5835 5835 5836 5837 5838 5839 5840 5840 5839 5839 5840 5839 5839 5841 5843 5843 5845 5846 5846 5847 5848 5848 5848 5848 5849 5850 5852 5853 5854 5856 5858 5859 5860 5862 5865 5865 5866 5866 5866 5867 5868 5870 5871 5871 5871 5871 5871 5871 5871 5872 5873 5875 5876 5877 5877 5878 5879 5880 5881 5881 5882 5883 5884
5809 5810 5810 5811 5811 5812 5812 5813 5813 5814 5815 5816 5817 5818 5819 5821 5822 5823 5824 5824 5824 5824 5824 5825 5825 5827 5828 5829 5830 5830 5830 5831 5831 5832 5833 5834 5835 5836 5837 5837 5838 5838 5837 5836 5838 5838 5838 5840 5841 5840 5842 5844 5844 5845 5845 5845 5845 5846 5847 5848 5850 5851 5853 5854 5856 5857 5858 5861 5863 5864 5865 5865 5866 5866 5867 5868 5870 5870 5870 5870 5870 5870 5870 5871 5873 5875 5876 5877 5877 5878 5879 5880 5881 5881 5882 5883 5883
5807 5808 5809 5809 5810 5810 5810 5811 5812 5813 5814 5815 5816 5817 5818 5820 5821 5822 5822 5823 5823 5823 5823 5824 5824 5826 5827 5828 5828 5829 5829 5829 5830 5830 5831 5832 5833 5834 5835 5836 5836 5836 5834 5833 5835 5837 5837 5838 5839 5839 5840 5841 5841 5842 5843 5843 5844 5844 5845 5847 5849 5850 5852 5853 5854 5855 5856 5858 5862 5863 5864 5864 5864 5864 5865 5867 5868 5869 5870 5870 5869 5869 5870 5870 5872 5874 5875 5876 5877 5878 5879 5880 5881 5881 5882 5883 5883
5805 5806 5807 5807 5808 5808 5809 5811 5812 5813 5813 5814 5815 5816 5817 5818 5820 5820 5821 5821 5822 5822 5822 5823 5824 5825 5826 5826 5826 5827 5828 5828 5828 5828 5829 5830 5832 5832 5833 5833 5834 5834 5833 5831 5833 5835 5836 5836 5837 5837 5837 5837 5837 5839 5841 5842 5842 5843 5843 5845 5848 5849 5851 5851 5852 5854 5854 5856 5860 5862 5863 5863 5863 5863 5864 5865 5866 5868 5868 5868 5868 5868 5869 5870 5871 5873 5875 5876 5877 5878 5879 5880 5881 5881 5882 5883 5883
5804 5804 5805 5805 5806 5807 5809 5810 5811 5812 5812 5813 5814 5815 5816 5817 5818 5819 5819 5820 5820 5821 5821 5822 5823 5824 5824 5824 5824 5825 5825 5826 5826 5826 5827 5828 5829 5830 5831 5831 5831 5831 5831 5830 5830 5832 5833 5834 5835 5835 5834 5833 5833 5836 5839 5842 5841 5842 5842 5843 5846 5847 5849 5849 5851 5852 5853 5854 5858 5860 5861 5861 5861 5862 5863 5864 5865 5866 5867 5867 5867 5868 5868 5869 5870 5872 5874 5875 5876 5877 5878 5879 5880 5882 5882 5883 5883
5802 5803 5803 5804 5805 5806 5808 5809 5809 5810 5811 5812 5813 5814 5814 5815 5816 5817 5818 5818 5819 5819 5820 5820 5821 5822 5822 5822 5822 5823 5823 5823 5823 5824 5825 5825 5827 5828 5828 5828 5829 5829 5828 5828 5828 5829 5830 5831 5832 5831 5831 5831 5832 5833 5838 5841 5840 5840 5840 5841 5842 5844 5846 5847 5849 5851 5851 5853 5856 5858 5859 5859 5859 5861 5862 5863 5863 5865 5866 5866 5867 5867 5867 5868 5869 5871 5873 5875 5876 5877 5878 5879 5880 5881 5882 5883 5883
5800 5801 5802 5803 5804 5805 5806 5807 5808 5809 5810 5811 5812 5812 5813 5813 5814 5815 5816 5816 5817 5817 5817 5818 5819 5819 5819 5820 5820 5820 5821 5821 5821 5821 5822 5823 5824 5825 5826 5826 5827 5827 5826 5826 5826 5827 5828 5828 5829 5829 5829 5829 5830 5831 5836 5839 5838 5836 5837 5838 5840 5841 5843 5846 5848 5849 5851 5852 5854 5855 5857 5858 5858 5859 5860 5861 5862 5863 5865 5865 5866 5866 5866 5867 5868 5870 5872 5874 5875 5877 5878 5879 5880 5881 5882 5883 5883
5799 5800 5801 5802 5803 5803 5804 5805 5806 5807 5809 5809 5810 5811 5811 5812 5812 5813 5814 5814 5815 5815 5815 5816 5817 5817 5817 5818 5818 5818 5819 5819 5819 5819 5819 5820 5821 5822 5823 5823 5824 5825 5825 5825 5825 5825 5825 5826 5826 5827 5827 5827 5828 5830 5833 5834 5832 5831 5832 5835 5837 5839 5841 5844 5846 5848 5849 5850 5851 5853 5855 5856 5857 5858 5859 5859 5861 5862 5863 5864 5864 5865 5865 5866 5867 5869 5871 5873 5874 5876 5877 5879 5880 5881 5882 5883 5883
5798 5799 5800 5800 5801 5801 5802 5803 5804 5806 5807 5808 5808 5809 5809 5810 5811 5811 5812 5813 5813 5813 5814 5814 5815 5816 5816 5816 5816 5817 5817 5817 5817 5817 5817 5818 5819 5820 5821 5821 5821 5822 5823 5823 5823 5823 5823 5824 5824 5824 5825 5825 5827 5829 5829 5828 5827 5827 5827 5829 5831 5833 5837 5840 5843 5846 5847 5847 5848 5851 5853 5855 5855 5856 5857 5857 5859 5860 5861 5862 5863 5864 5864 5865 5866 5867 5869 5871 5873 5875 5877 5878 5879 5880 5881 5882 5883
5797 5797 5798 5799 5799 5800 5800 5802 5803 5804 5805 5806 5806 5807 5808 5808 5809 5810 5810 5811 5811 5812 5813 5813 5814 5815 5815 5815 5815 5815 5815 5815 5815 5815 5815 5816 5817 5818 5819 5819 5819 5820 5820 5821 5821 5822 5822 5822 5822 5822 5823 5824 5825 5827 5826 5824 5825 5826 5825 5825 5826 5827 5831 5836 5839 5842 5844 5845 5846 5848 5851 5853 5854 5855 5855 5855 5857 5858 5859 5860 5861 5862 5863 5864 5865 5866 5868 5870 5872 5874 5876 5878 5879 5880 5881 5881 5883
5795 5795 5796 5797 5797 5798 5799 5800 5801 5802 5803 5804 5805 5805 5806 5807 5807 5808 5808 5809 5809 5810 5811 5812 5812 5813 5813 5813 5813 5813 5813 5813 5813 5812 5813 5813 5814 5816 5817 5817 5817 5817 5817 5818 5819 5819 5820 5820 5820 5821 5821 5822 5823 5824 5823 5823 5825 5826 5826 5826 5826 5827 5829 5833 5836 5839 5842 5843 5845 5847 5849 5851 5853 5853 5853 5854 5855 5856 5857 5858 5859 5860 5861 5862 5863 5865 5866 5868 5871 5873 5874 5876 5878 5879 5880 5881 5882
5793 5794 5795 5795 5796 5797 5798 5799 5799 5800 5801 5802 5803 5803 5804 5805 5805 5805 5806 5807 5808 5809 5810 5810 5811 5811 5811 5812 5812 5812 5811 5811 5811 5810 5811 5811 5812 5813 5814 5815 5815 5815 5815 5816 5816 5817 5817 5818 5819 5819 5820 5820 5821 5821 5821 5822 5823 5825 5827 5828 5828 5829 5831 5832 5835 5837 5839 5842 5843 5845 5847 5849 5851 5851 5852 5853 5853 5854 5855 5856 5857 5858 5859 5861 5862 5864 5865 5867 5869 5871 5873 5875 5877 5878 5879 5880 5882
5791 5792 5793 5793 5794 5795 5796 5797 5798 5798 5799 5800 5800 5801 5801 5802 5802 5803 5803 5804 5806 5807 5808 5808 5809 5809 5809 5809 5810 5810 5809 5809 5808 5808 5809 5809 5809 5809 5811 5812 5813 5813 5813 5813 5814 5814 5814 5816 5816 5817 5819 5820 5819 5820 5819 5819 5821 5823 5825 5827 5828 5828 5828 5830 5832 5834 5837 5839 5841 5843 5845 5847 5848 5849 5850 5851 5851 5852 5853 5854 5855 5857 5857 5859 5860 5862 5864 5865 5868 5870 5872 5873 5875 5877 5878 5879 5881
5790 5791 5791 5792 5792 5793 5794 5795 5796 5796 5797 5797 5798 5798 5799 5799 5800 5800 5801 5802 5803 5804 5805 5806 5807 5807 5807 5807 5807 5807 5807 5807 5806 5806 5807 5807 5806 5807 5808 5809 5810 5811 5811 5811 5811 5812 5812 5812 5814 5815 5817 5818 5818 5818 5818 5817 5818 5821 5822 5823 5824 5824 5823 5825 5828 5832 5835 5837 5839 5841 5843 5845 5846 5846 5848 5849 5849 5851 5852 5852 5854 5855 5856 5857 5858 5860 5862 5864 5866 5868 5870 5872 5874 5876 5877 5878 5880
5788 5789 5789 5790 5790 5791 5792 5792 5793 5794 5794 5795 5795 5796 5796 5797 5797 5798 5799 5799 5801 5802 5803 5803 5804 5804 5804 5804 5804 5804 5804 5804 5804 5804 5804 5804 5805 5805 5805 5806 5807 5808 5809 5809 5809 5810 5810 5810 5811 5812 5813 5815 5817 5817 5817 5816 5816 5818 5818 5818 5820 5821 5821 5823 5826 5830 5834 5836 5838 5840 5842 5843 5844 5844 5846 5847 5848 5849 5850 5851 5852 5854 5854 5855 5856 5858 5860 5862 5864 5866 5868 5870 5872 5874 5875 5876 5878
5786 5786 5787 5788 5788 5789 5789 5790 5790 5791 5792 5792 5793 5794 5794 5795 5795 5795 5796 5796 5798 5799 5800 5800 5800 5801 5801 5801 5801 5801 5802 5802 5801 5801 5802 5802 5802 5803 5803 5803 5804 5805 5806 5807 5807 5807 5808 5808 5808 5809 5810 5812 5814 5815 5815 5815 5815 5816 5815 5816 5818 5819 5821 5823 5826 5829 5832 5834 5836 5838 5839 5841 5841 5842 5844 5845 5846 5846 5847 5849 5850 5852 5853 5853 5854 5856 5858 5860 5862 5864 5866 5867 5869 5871 5873 5875 5876
5783 5784 5785 5785 5786 5787 5787 5787 5788 5788 5789 5790 5790 5791 5792 5793 5793 5793 5793 5793 5794 5795 5796 5796 5797 5797 5798 5798 5798 5798 5799 5799 5799 5799 5799 5799 5799 5800 5800 5800 5800 5801 5803 5804 5804 5804 5805 5805 5806 5807 5807 5808 5810 5812 5813 5813 5814 5814 5814 5815 5817 5818 5820 5822 5823 5825 5827 5829 5831 5833 5835 5837 5838 5839 5841 5843 5844 5844 5845 5847 5848 5849 5851 5852 5852 5854 5855 5857 5859 5861 5864 5866 5867 5869 5871 5873 5874
5781 5781 5782 5783 5784 5784 5785 5785 5785 5786 5786 5787 5788 5789 5790 5790 5790 5790 5790 5790 5791 5792 5793 5793 5793 5794 5794 5795 5795 5795 5796 5796 5796 5796 5796 5796 5796 5796 5796 5796 5797 5798 5799 5801 5802 5802 5802 5803 5803 5804 5805 5805 5806 5808 5809 5810 5812 5812 5812 5814 5816 5816 5817 5818 5818 5820 5823 5824 5826 5829 5831 5833 5834 5836 5837 5839 5841 5842 5843 5844 5846 5848 5849 5850 5851 5852 5853 5855 5856 5859 5862 5864 5865 5867 5869 5871 5872
5778 5779 5780 5781 5781 5782 5782 5782 5783 5783 5783 5784 5785 5786 5787 5787 5787 5787 5787 5787 5788 5789 5789 5789 5790 5790 5791 5791 5792 5792 5792 5793 5793 5793 5793 5793 5793 5793 5792 5792 5793 5793 5795 5797 5798 5799 5800 5800 5801 5802 5803 5803 5804 5804 5806 5807 5808 5809 5810 5811 5814 5814 5815 5816 5816 5818 5820 5821 5823 5826 5828 5829 5831 5832 5834 5836 5837 5838 5840 5842 5844 5845 5847 5848 5849 5850 5851 5852 5854 5856 5859 5861 5863 5865 5867 5869 5870
5776 5777 5778 5779 5779 5779 5779 5779 5779 5780 5780 5781 5782 5783 5783 5784 5784 5784 5784 5784 5784 5785 5785 5786 5786 5787 5787 5788 5788 5789 5789 5789 5789 5789 5790 5790 5790 5789 5788 5788 5788 5789 5790 5792 5794 5795 5797 5798 5798 5799 5800 5801 5801 5801 5802 5803 5804 5806 5806 5807 5810 5812 5813 5813 5814 5816 5817 5819 5821 5822 5824 5826 5827 5829 5831 5833 5834 5835 5837 5839 5841 5843 5844 5845 5847 5849 5850 5851 5852 5853 5856 5858 5861 5863 5865 5867 5868
5774 5774 5775 5776 5777 5777 5777 5776 5777 5777 5777 5778 5779 5779 5780 5780 5781 5781 5781 5781 5781 5781 5782 5782 5782 5783 5783 5784 5785 5785 5785 5785 5785 5786 5787 5787 5786 5785 5784 5783 5784 5784 5786 5787 5788 5790 5793 5795 5796 5796 5797 5798 5799 5799 5799 5800 5800 5802 5802 5803 5805 5808 5809 5810 5812 5813 5815 5816 5818 5819 5820 5822 5824 5826 5828 5830 5831 5832 5833 5836 5837 5839 5841 5843 5844 5846 5848 5849 5850 5851 5853 5855 5857 5860 5862 5864 5866
5771 5772 5773 5774 5774 5773 5774 5774 5775 5774 5774 5774 5775 5776 5776 5776 5777 5777 5777 5777 5777 5778 5778 5778 5779 5779 5779 5780 5781 5781 5781 5781 5781 5782 5783 5783 5782 5782 5781 5780 5780 5781 5782 5783 5784 5785 5788 5790 5792 5793 5793 5794 5795 5796 5796 5796 5797 5798 5799 5799 5800 5804 5805 5807 5809 5811 5812 5813 5813 5815 5816 5818 5820 5822 5824 5827 5829 5829 5830 5832 5834 5836 5838 5840 5842 5844 5846 5847 5848 5849 5851 5853 5854 5857 5859 5861 5863
5768 5769 5769 5770 5770 5770 5771 5772 5772 5771 5771 5771 5772 5772 5771 5772 5773 5773 5774 5774 5773 5774 5774 5775 5775 5775 5775 5776 5777 5777 5777 5777 5778 5778 5779 5778 5778 5778 5778 5777 5777 5777 5778 5779 5780 5781 5783 5785 5786 5788 5789 5790 5791 5792 5793 5793 5793 5794 5795 5795 5796 5799 5801 5802 5805 5807 5809 5809 5810 5812 5813 5815 5817 5818 5819 5821 5824 5826 5826 5828 5830 5832 5834 5836 5839 5841 5843 5845 5846 5847 5848 5850 5852 5854 5856 5858 5860
5765 5766 5766 5767 5767 5767 5768 5769 5768 5768 5768 5769 5769 5769 5768 5768 5769 5770 5770 5769 5769 5770 5770 5771 5771 5771 5772 5772 5772 5773 5773 5773 5774 5774 5774 5774 5775 5775 5775 5774 5774 5774 5774 5775 5776 5777 5778 5779 5781 5782 5783 5784 5786 5787 5789 5790 5790 5790 5791 5791 5792 5794 5796 5797 5799 5802 5805 5806 5807 5809 5810 5812 5813 5814 5814 5815 5818 5821 5822 5824 5826 5828 5831 5833 5836 5837 5840 5842 5844 5845 5846 5847 5849 5851 5853 5855 5857
5762 5762 5763 5763 5764 5764 5765 5766 5766 5766 5766 5766 5767 5766 5765 5765 5765 5766 5765 5765 5765 5766 5766 5767 5767 5767 5768 5768 5768 5769 5769 5770 5770 5770 5770 5771 5771 5771 5771 5771 5770 5770 5770 5771 5772 5774 5774 5775 5776 5777 5779 5780 5781 5782 5784 5785 5787 5787 5788 5788 5789 5790 5792 5794 5795 5797 5800 5802 5803 5805 5807 5808 5810 5810 5810 5811 5814 5817 5819 5820 5822 5824 5827 5830 5832 5834 5837 5839 5841 5842 5843 5845 5846 5848 5850 5852 5854
5759 5760 5760 5760 5761 5760 5761 5762 5763 5763 5763 5763 5764 5763 5762 5761 5762 5762 5760 5759 5761 5762 5763 5763 5763 5763 5764 5764 5765 5765 5765 5766 5766 5766 5767 5767 5767 5767 5767 5767 5766 5766 5766 5767 5768 5770 5771 5771 5771 5773 5774 5776 5777 5778 5779 5781 5782 5783 5784 5785 5785 5786 5788 5790 5791 5792 5795 5798 5798 5800 5803 5804 5806 5807 5808 5809 5811 5813 5815 5817 5819 5820 5823 5826 5829 5831 5833 5835 5837 5840 5841 5842 5844 5845 5847 5848 5850
5756 5757 5757 5757 5758 5757 5757 5758 5759 5760 5760 5760 5760 5760 5759 5758 5759 5758 5756 5755 5757 5759 5760 5759 5759 5759 5759 5760 5761 5762 5762 5762 5762 5763 5763 5763 5763 5763 5763 5763 5763 5762 5763 5764 5765 5766 5767 5768 5768 5769 5770 5771 5773 5774 5775 5776 5777 5779 5780 5781 5782 5783 5784 5786 5787 5788 5790 5792 5794 5795 5797 5800 5801 5803 5805 5806 5808 5809 5811 5814 5815 5816 5819 5823 5826 5828 5830 5832 5834 5837 5838 5840 5841 5842 5843 5845 5847
5753 5754 5754 5754 5754 5754 5754 5754 5756 5757 5757 5756 5756 5757 5756 5755 5755 5755 5752 5751 5753 5756 5756 5756 5756 5755 5755 5757 5758 5758 5759 5759 5759 5759 5759 5758 5759 5759 5759 5759 5760 5759 5759 5760 5761 5761 5762 5763 5764 5764 5765 5766 5768 5769 5771 5772 5773 5774 5775 5776 5777 5779 5780 5781 5782 5784 5785 5787 5789 5789 5791 5795 5797 5798 5800 5802 5804 5805 5807 5809 5811 5813 5815 5818 5822 5825 5827 5829 5831 5833 5835 5836 5838 5839 5840 5842 5843
5750 5751 5751 5750 5751 5751 5751 5751 5752 5752 5753 5753 5753 5753 5753 5753 5752 5752 5749 5748 5751 5753 5753 5752 5752 5751 5751 5753 5754 5754 5755 5755 5755 5755 5755 5755 5755 5755 5756 5756 5756 5756 5756 5756 5757 5757 5757 5758 5758 5759 5761 5762 5763 5764 5765 5766 5767 5769 5770 5771 5772 5774 5775 5777 5778 5779 5780 5782 5783 5785 5786 5789 5791 5793 5795 5798 5799 5800 5801 5804 5806 5808 5810 5813 5817 5821 5823 5826 5827 5829 5830 5832 5834 5836 5837 5838 5840
5747 5747 5747 5747 5747 5747 5747 5748 5749 5749 5749 5749 5749 5750 5751 5751 5750 5748 5746 5745 5748 5749 5749 5749 5749 5748 5748 5749 5749 5750 5750 5750 5751 5751 5752 5752 5752 5752 5752 5752 5752 5752 5752 5752 5753 5753 5754 5754 5754 5754 5755 5757 5758 5759 5760 5761 5762 5763 5765 5766 5768 5769 5770 5771 5773 5774 5776 5777 5779 5780 5781 5783 5786 5788 5790 5792 5794 5796 5797 5798 5800 5802 5804 5808 5812 5816 5819 5820 5822 5824 5827 5829 5831 5833 5835 5836 5837
5743 5743 5743 5743 5744 5743 5744 5745 5745 5746 5746 5746 5746 5748 5749 5748 5746 5745 5744 5744 5745 5746 5746 5746 5745 5745 5745 5745 5745 5745 5745 5746 5747 5748 5748 5749 5749 5748 5748 5748 5748 5748 5748 5748 5749 5749 5750 5750 5750 5751 5751 5751 5753 5754 5755 5756 5757 5758 5759 5761 5762 5764 5765 5766 5768 5769 5771 5772 5774 5775 5776 5777 5779 5782 5785 5787 5789 5791 5792 5792 5793 5796 5800 5804 5807 5810 5813 5816 5818 5821 5823 5825 5828 5830 5832 5832 5833
5739 5739 5740 5740 5741 5740 5741 5742 5742 5742 5743 5743 5743 5745 5746 5744 5742 5742 5742 5742 5743 5743 5742 5742 5742 5742 5742 5741 5741 5740 5741 5741 5742 5743 5744 5744 5744 5744 5744 5744 5744 5744 5744 5744 5745 5745 5746 5746 5747 5747 5747 5747 5748 5749 5750 5751 5752 5753 5754 5755 5756 5758 5759 5761 5762 5763 5765 5767 5768 5770 5772 5773 5774 5776 5779 5782 5784 5787 5788 5788 5789 5792 5796 5800 5801 5804 5807 5811 5814 5816 5819 5821 5823 5826 5828 5829 5831
5736 5736 5737 5737 5737 5737 5737 5738 5738 5738 5739 5739 5739 5741 5742 5740 5739 5739 5739 5740 5740 5739 5738 5738 5738 5738 5738 5737 5737 5737 5737 5737 5738 5738 5738 5739 5739 5740 5740 5740 5741 5741 5741 5741 5741 5741 5742 5742 5743 5743 5744 5744 5744 5744 5744 5745 5746 5747 5748 5750 5751 5752 5753 5754 5756 5757 5758 5760 5762 5764 5766 5768 5769 5771 5773 5775 5778 5781 5784 5785 5787 5790 5793 5796 5797 5799 5802 5806 5809 5812 5814 5816 5818 5821 5824 5826 5828
5733 5733 5734 5734 5734 5734 5733 5734 5735 5735 5735 5736 5736 5737 5738 5737 5736 5736 5735 5736 5736 5735 5735 5735 5735 5735 5734 5734 5733 5733 5734 5734 5734 5734 5734 5734 5734 5735 5735 5735 5736 5736 5736 5736 5736 5736 5737 5738 5738 5739 5739 5739 5739 5739 5739 5739 5740 5741 5743 5744 5745 5746 5747 5748 5749 5751 5753 5755 5757 5758 5760 5763 5764 5766 5767 5769 5772 5775 5778 5781 5783 5786 5789 5791 5792 5795 5797 5800 5803 5806 5809 5811 5814 5817 5818 5820 5822
5730 5730 5730 5730 5730 5730 5730 5730 5731 5731 5731 5732 5732 5732 5734 5733 5732 5732 5732 5732 5732 5731 5731 5731 5731 5731 5731 5731 5731 5731 5731 5730 5730 5730 5730 5730 5730 5730 5730 5730 5730 5730 5730 5730 5730 5731 5732 5732 5733 5734 5734 5735 5734 5734 5734 5734 5734 5735 5736 5738 5739 5740 5741 5742 5743 5745 5746 5748 5751 5752 5754 5756 5758 5760 5762 5763 5766 5769 5772 5775 5777 5780 5783 5785 5788 5790 5792 5793 5796 5800 5803 5806 5809 5811 5813 5814 5818
5727 5728 5727 5727 5727 5727 5727 5727 5727 5728 5728 5728 5727 5727 5729 5730 5728 5729 5729 5728 5727 5727 5727 5727 5728 5728 5728 5728 5728 5728 5727 5727 5726 5726 5726 5726 5726 5726 5725 5725 5725 5724 5724 5724 5724 5725 5725 5726 5727 5728 5729 5729 5729 5729 5729 5729 5729 5729 5730 5731 5733 5734 5735 5736 5737 5739 5740 5742 5744 5746 5748 5750 5751 5754 5755 5757 5759 5762 5765 5769 5771 5774 5776 5779 5782 5785 5787 5788 5791 5795 5797 5801 5804 5806 5807 5810 5814
5724 5725 5725 5724 5724 5723 5723 5723 5723 5724 5724 5724 5723 5722 5724 5727 5726 5724 5725 5724 5723 5723 5723 5723 5724 5724 5724 5725 5724 5724 5724 5723 5723 5722 5722 5722 5722 5721 5721 5721 5720 5720 5720 5719 5719 5719 5719 5720 5720 5721 5722 5722 5723 5723 5723 5723 5724 5724 5724 5725 5726 5728 5729 5730 5731 5732 5734 5735 5737 5739 5741 5743 5745 5747 5749 5751 5753 5755 5758 5761 5765 5767 5770 5773 5775 5779 5782 5784 5787 5790 5790 5794 5798 5800 5802 5806 5808
5722 5722 5722 5721 5721 5720 5720 5720 5720 5720 5721 5721 5719 5717 5719 5723 5723 5720 5720 5720 5719 5719 5720 5720 5720 5720 5720 5720 5720 5720 5720 5719 5719 5719 5719 5718 5718 5717 5717 5716 5716 5715 5715 5715 5714 5714 5714 5714 5714 5715 5715 5715 5716 5716 5717 5717 5718 5718 5718 5719 5720 5721 5723 5724 5725 5725 5727 5729 5730 5732 5733 5736 5738 5740 5742 5744 5746 5749 5751 5754 5757 5760 5763 5767 5769 5773 5777 5779 5782 5784 5785 5788 5792 5794 5798 5801 5802
5719 5719 5719 5718 5717 5717 5717 5717 5716 5716 5717 5718 5716 5714 5714 5718 5721 5719 5716 5715 5715 5716 5717 5716 5716 5716 5716 5717 5716 5716 5715 5715 5715 5715 5716 5715 5714 5714 5713 5712 5712 5711 5711 5710 5710 5710 5710 5709 5709 5709 5709 5710 5710 5711 5710 5710 5711 5712 5713 5713 5714 5715 5716 5718 5719 5719 5720 5721 5724 5725 5726 5728 5730 5733 5735 5738 5740 5742 5744 5747 5750 5753 5756 5760 5763 5765 5770 5773 5776 5778 5780 5783 5785 5788 5792 5795 5797
5716 5716 5715 5714 5714 5714 5714 5713 5713 5712 5713 5714 5712 5711 5711 5712 5716 5717 5713 5711 5712 5713 5714 5713 5712 5713 5713 5713 5713 5712 5711 5711 5711 5711 5711 5711 5711 5710 5709 5708 5707 5706 5706 5706 5705 5705 5705 5704 5704 5704 5704 5705 5705 5705 5705 5705 5705 5706 5707 5708 5708 5709 5710 5712 5713 5714 5714 5715 5716 5718 5719 5721 5722 5725 5727 5730 5733 5735 5737 5739 5742 5746 5749 5752 5756 5759 5762 5766 5769 5772 5775 5777 5779 5782 5786 5789 5793
5713 5713 5712 5711 5710 5711 5710 5710 5710 5708 5709 5710 5709 5708 5707 5709 5712 5712 5709 5708 5709 5709 5710 5709 5709 5709 5709 5709 5709 5708 5707 5707 5707 5707 5707 5706 5706 5705 5705 5704 5703 5701 5701 5700 5700 5700 5700 5700 5699 5699 5698 5699 5700 5700 5699 5699 5700 5701 5702 5702 5703 5703 5704 5706 5707 5708 5708 5708 5709 5710 5712 5713 5715 5717 5719 5722 5725 5727 5730 5732 5734 5738 5741 5745 5749 5752 5755 5759 5762 5765 5768 5771 5774 5777 5780 5783 5787
5710 5709 5709 5708 5707 5707 5707 5707 5706 5705 5705 5706 5706 5704 5704 5706 5708 5707 5706 5705 5705 5705 5706 5706 5705 5706 5706 5705 5705 5704 5704 5704 5703 5702 5702 5701 5701 5700 5700 5699 5698 5697 5695 5695 5695 5694 5694 5694 5694 5694 5693 5694 5695 5694 5694 5694 5694 5695 5696 5697 5697 5697 5698 5699 5700 5701 5701 5702 5703 5704 5705 5706 5708 5710 5712 5714 5716 5718 5721 5723 5726 5730 5733 5736 5740 5744 5748 5751 5755 5758 5761 5764 5768 5771 5774 5777 5780
5707 5707 5706 5705 5705 5704 5703 5702 5702 5703 5703 5702 5702 5701 5701 5703 5703 5703 5702 5701 5701 5701 5701 5701 5702 5702 5702 5701 5701 5701 5701 5700 5699 5698 5697 5696 5696 5695 5695 5694 5693 5692 5691 5690 5689 5689 5689 5689 5689 5689 5688 5688 5689 5688 5688 5688 5688 5689 5690 5691 5691 5692 5692 5693 5694 5695 5695 5695 5696 5697 5698 5699 5701 5703 5705 5707 5708 5710 5712 5715 5718 5721 5724 5728 5732 5736 5741 5744 5747 5750 5754 5757 5761 5765 5768 5771 5774
5703 5704 5703 5703 5703 5701 5698 5698 5699 5699 5699 5699 5698 5697 5698 5699 5699 5698 5698 5697 5697 5697 5697 5697 5697 5697 5697 5697 5697 5696 5696 5695 5694 5694 5693 5692 5691 5690 5690 5689 5689 5687 5686 5685 5684 5684 5684 5684 5684 5684 5683 5682 5682 5682 5682 5683 5683 5683 5684 5685 5685 5686 5686 5687 5688 5689 5689 5689 5689 5690 5691 5692 5694 5695 5697 5700 5702 5703 5704 5707 5710 5713 5716 5719 5723 5728 5733 5737 5740 5743 5746 5750 5755 5759 5762 5766 5769
5700 5699 5699 5700 5700 5697 5695 5695 5695 5694 5694 5694 5695 5694 5695 5695 5695 5694 5693 5692 5693 5693 5693 5693 5692 5693 5692 5692 5692 5691 5691 5690 5689 5689 5688 5688 5687 5686 5686 5685 5684 5683 5681 5680 5680 5679 5679 5679 5679 5679 5678 5677 5677 5677 5677 5677 5677 5677 5678 5678 5679 5680 5680 5681 5681 5682 5682 5683 5683 5683 5684 5685 5686 5688 5689 5692 5694 5696 5697 5699 5702 5705 5708 5711 5715 5719 5724 5728 5731 5735 5739 5743 5747 5752 5756 5760 5762
5695 5695 5697 5697 5696 5694 5692 5691 5691 5690 5689 5689 5691 5691 5691 5691 5691 5691 5689 5687 5688 5689 5689 5688 5688 5688 5688 5687 5686 5686 5686 5685 5685 5685 5684 5684 5683 5682 5682 5680 5679 5678 5676 5675 5675 5674 5675 5675 5675 5674 5673 5672 5671 5671 5671 5671 5672 5672 5672 5672 5673 5673 5674 5674 5675 5675 5676 5676 5676 5676 5676 5677 5679 5680 5681 5683 5686 5688 5690 5692 5694 5697 5700 5703 5707 5711 5715 5719 5723 5727 5731 5735 5740 5746 5750 5754 5756
5691 5692 5694 5693 5690 5690 5689 5687 5686 5685 5684 5684 5686 5687 5687 5688 5688 5687 5685 5683 5683 5683 5684 5684 5684 5683 5683 5682 5681 5681 5681 5680 5680 5680 5680 5680 5679 5678 5678 5676 5674 5673 5671 5670 5670 5669 5670 5669 5669 5669 5668 5667 5666 5665 5665 5666 5666 5666 5666 5666 5667 5667 5667 5667 5668 5668 5669 5669 5669 5668 5668 5669 5671 5672 5673 5675 5677 5680 5682 5684 5686 5689 5692 5695 5699 5703 5707 5711 5715 5719 5723 5727 5732 5738 5743 5747 5750
5688 5689 5689 5688 5686 5686 5685 5684 5682 5681 5680 5680 5681 5682 5683 5685 5684 5683 5681 5679 5678 5678 5679 5679 5679 5679 5678 5678 5677 5677 5677 5676 5676 5676 5675 5675 5675 5674 5673 5671 5670 5668 5667 5666 5665 5665 5664 5664 5664 5663 5663 5662 5660 5660 5659 5659 5660 5660 5660 5660 5660 5660 5660 5660 5661 5661 5662 5662 5662 5661 5661 5662 5662 5664 5666 5667 5669 5671 5674 5676 5678 5680 5684 5688 5691 5694 5699 5703 5706 5711 5715 5720 5724 5730 5736 5741 5744
5684 5684 5683 5682 5682 5681 5681 5679 5678 5678 5676 5675 5675 5676 5679 5682 5681 5679 5678 5676 5674 5673 5674 5674 5674 5674 5674 5674 5674 5673 5673 5672 5672 5671 5670 5670 5670 5669 5668 5667 5665 5664 5662 5661 5660 5660 5659 5658 5658 5657 5657 5656 5655 5654 5654 5653 5653 5653 5653 5654 5654 5654 5654 5654 5654 5654 5655 5655 5654 5654 5654 5654 5655 5656 5657 5659 5661 5663 5665 5667 5669 5672 5675 5679 5683 5686 5690 5695 5698 5703 5708 5712 5717 5723 5728 5733 5738
5679 5679 5678 5678 5678 5676 5675 5674 5674 5674 5672 5671 5669 5669 5675 5679 5677 5676 5674 5672 5670 5668 5668 5669 5669 5669 5669 5669 5670 5669 5669 5668 5667 5667 5666 5665 5665 5664 5663 5662 5661 5659 5658 5657 5656 5655 5654 5653 5652 5652 5651 5650 5649 5648 5648 5647 5647 5646 5647 5647 5647 5647 5647 5647 5647 5647 5647 5647 5647 5646 5647 5646 5647 5648 5649 5650 5652 5654 5656 5658 5661 5663 5666 5670 5674 5678 5682 5686 5691 5695 5700 5705 5710 5715 5720 5726 5731
5673 5673 5672 5673 5673 5672 5670 5668 5669 5669 5667 5667 5664 5662 5670 5675 5673 5672 5670 5667 5666 5664 5664 5664 5664 5664 5665 5665 5665 5665 5665 5664 5663 5662 5662 5661 5660 5659 5658 5657 5656 5654 5653 5652 5651 5650 5649 5648 5647 5646 5645 5644 5643 5643 5642 5641 5640 5640 5640 5640 5640 5640 5640 5640 5640 5640 5640 5640 5639 5639 5639 5639 5639 5639 5640 5642 5643 5645 5647 5649 5652 5654 5657 5660 5665 5669 5674 5678 5683 5687 5692 5697 5702 5707 5713 5718 5724